White Plains, CT

7:53 PM EDT on September 20, 2019 (GMT -0400)
Westchester County

Weather History for KHPN - July, 2019

Change the Weather History Date:

Friday, July 12, 2019

  Actual Average Record
Temperature  
Mean Temperature 78 °F -  
Max Temperature 86 °F 79 °F 91 °F (1983)
Min Temperature 71 °F 61 °F 52 °F (1978)
Cooling Degree Days 14    
Growing Degree Days 28 (Base 50)    
Moisture  
Dew Point 67 °F    
Average Humidity 76    
Maximum Humidity 97    
Minimum Humidity 42    
Precipitation  
Precipitation 0.50 in - - ()
Sea Level Pressure  
Sea Level Pressure 29.73 in    
Wind  
Wind Speed 6 mph (WNW)    
Max Wind Speed 17 mph    
Max Gust Speed 22 mph    
Visibility 10 miles    
Events Rain    
Averages and records for this station are not official NWS values.
T = Trace of Precipitation, MM = Missing Value Source: NWS Daily Summary

Daily Weather History Graph

Daily Weather History Graph

Search for Another Location

Airport or City:

Astronomy

Jul. 12, 2019 Rise Set
Actual Time 5:32 AM EDT 8:27 PM EDT
Civil Twilight 5:00 AM EDT 9:00 PM EDT
Nautical Twilight 4:18 AM EDT 9:41 PM EDT
Astronomical Twilight 3:30 AM EDT 10:29 PM EDT
Moon 4:43 PM EDT (7/12) 2:16 AM EDT (7/12)
Length of Visible Light 16h 00m
Length of Day
14h 54m
Waxing Gibbous, 82% of the Moon is Illuminated
Jul 12
Waxing Gibbous
Jul 16
Full
Jul 24
Last Quarter
Jul 31
New
Aug 7
First Quarter

Hourly Weather History & Observations

Time (EDT) Temp. Heat Index Dew Point Humidity Pressure Visibility Wind Dir Wind Speed Gust Speed Precip Events Conditions
12:56 AM 72.0 °F - 70.0 °F 93% 29.72 in 10.0 mi East 3.5 mph - 0.49 in   Mostly Cloudy
1:56 AM 72.0 °F - 70.0 °F 93% 29.72 in 10.0 mi ESE 3.5 mph - 0.00 in   Mostly Cloudy
2:56 AM 72.0 °F - 71.1 °F 97% 29.70 in 5.0 mi Calm Calm - 0.00 in Rain Light Rain
3:14 AM 72.0 °F - 71.1 °F 97% 29.71 in 10.0 mi Calm Calm - 0.01 in   Overcast
3:56 AM 72.0 °F - 70.0 °F 93% 29.69 in 10.0 mi WNW 6.9 mph - 0.01 in   Scattered Clouds
4:56 AM 72.0 °F - 71.1 °F 97% 29.69 in 10.0 mi WNW 3.5 mph - N/A   Mostly Cloudy
5:03 AM 72.0 °F - 71.1 °F 97% 29.70 in 10.0 mi WSW 3.5 mph - N/A   Overcast
5:17 AM 72.0 °F - 70.0 °F 93% 29.70 in 10.0 mi WSW 3.5 mph - N/A   Overcast
5:28 AM 72.0 °F - 70.0 °F 93% 29.71 in 10.0 mi West 3.5 mph - N/A   Mostly Cloudy
5:53 AM 71.6 °F - 69.8 °F 94% 29.71 in 7.0 mi Calm Calm - N/A   Mostly Cloudy
5:56 AM 71.1 °F - 70.0 °F 96% 29.70 in 7.0 mi West 4.6 mph - N/A   Mostly Cloudy
6:22 AM 71.1 °F - 70.0 °F 96% 29.71 in 9.0 mi WSW 4.6 mph - N/A   Scattered Clouds
6:56 AM 72.0 °F - 70.0 °F 93% 29.70 in 9.0 mi West 4.6 mph - N/A   Scattered Clouds
7:32 AM 73.0 °F - 70.0 °F 90% 29.72 in 10.0 mi West 6.9 mph - N/A   Mostly Cloudy
7:56 AM 73.0 °F - 70.0 °F 90% 29.72 in 10.0 mi Variable 3.5 mph - N/A   Mostly Cloudy
8:56 AM 75.9 °F - 71.1 °F 85% 29.72 in 10.0 mi WNW 5.8 mph - N/A   Scattered Clouds
9:56 AM 78.1 °F - 70.0 °F 76% 29.73 in 10.0 mi WNW 8.1 mph - N/A   Scattered Clouds
10:17 AM 78.1 °F - 70.0 °F 76% 29.74 in 10.0 mi WNW 10.4 mph - N/A   Mostly Cloudy
10:56 AM 81.0 °F 84.4 °F 70.0 °F 69% 29.72 in 10.0 mi WNW 9.2 mph - N/A   Mostly Cloudy
11:56 AM 82.0 °F 84.9 °F 68.0 °F 62% 29.72 in 10.0 mi NW 9.2 mph - N/A   Mostly Cloudy
12:56 PM 84.0 °F 87.0 °F 68.0 °F 58% 29.71 in 10.0 mi WNW 9.2 mph - N/A   Scattered Clouds
1:56 PM 84.0 °F 85.8 °F 64.9 °F 53% 29.71 in 10.0 mi NW 12.7 mph - N/A   Scattered Clouds
2:56 PM 86.0 °F 86.8 °F 63.0 °F 46% 29.71 in 10.0 mi NW 13.8 mph 21.9 mph N/A   Scattered Clouds
3:56 PM 84.9 °F 85.4 °F 62.1 °F 46% 29.70 in 10.0 mi NW 15.0 mph - N/A   Scattered Clouds
4:56 PM 84.0 °F 84.0 °F 60.1 °F 44% 29.71 in 10.0 mi NW 16.1 mph - N/A   Scattered Clouds
5:56 PM 82.9 °F 82.6 °F 57.9 °F 42% 29.73 in 10.0 mi WNW 17.3 mph - N/A   Partly Cloudy
6:56 PM 81.0 °F 81.1 °F 57.9 °F 45% 29.75 in 10.0 mi NW 10.4 mph - N/A   Partly Cloudy
7:56 PM 78.1 °F - 59.0 °F 52% 29.78 in 10.0 mi NW 13.8 mph - N/A   Partly Cloudy
8:56 PM 75.9 °F - 60.1 °F 58% 29.80 in 10.0 mi NW 13.8 mph - N/A   Partly Cloudy
9:56 PM 73.9 °F - 60.1 °F 62% 29.81 in 10.0 mi NW 10.4 mph - N/A   Clear
10:56 PM 73.9 °F - 61.0 °F 64% 29.83 in 10.0 mi NW 15.0 mph - N/A   Clear
11:56 PM 73.0 °F - 61.0 °F 66% 29.85 in 10.0 mi NW 10.4 mph - N/A   Clear